Location: Catacaguana
(10.4120°N, 66.7591°W)
Time: 04:47:52
(UTC+00:00)

CZ-4C R/B - Pass Details

Date: 27 May 2022
Orbit: 462 x 625 km, 98.1° (Epoch: 24 June)

Event Time Altitude Azimuth Distance (km) Brightness Sun altitude
Rises 08:49:40 0° 160° (SSE) 2,486 6.6 -17.6°
Reaches altitude 10° 08:51:42 10° 155° (SSE) 1,619 5.7 -17.1°
Maximum altitude 08:55:05 52° 78° (ENE) 594 3.8 -16.4°
Drops below altitude 10° 08:58:34 10° 0° (N) 1,672 6.1 -15.6°
Sets 09:00:42 0° 356° (N) 2,577 7.0 -15.1°
